Regional Weather Roundup
Issued by NWS

Home | Current Version | Previous Version | Text Only | Print | Product List | Glossary Off
Versions: 1 2 3 4 5 6 7 8 9 10 11 12 13 14 15 16 17 18 19 20 21 22 23 24 25 26 27 28 29 30 31 32 33 34 35 36 37 38 39 40 41 42 43 44 45 46 47 48 49 50

000
ASUS43 KDTX 260001
RWRMI
MICHIGAN HOURLY REGIONAL WEATHER ROUNDUP
NATIONAL WEATHER SERVICE DETROIT/PONTIAC MI
800 PM EDT WED MAY 25 2016

NOTE: "FAIR" INDICATES FEW OR NO CLOUDS BELOW 12,000 FEET WITH NO
SIGNIFICANT WEATHER AND/OR OBSTRUCTION TO VISIBILITY.

MIZ047>049-052>055-059>063-066>070-074>076-081>083-260100-
SOUTHEAST LOWER MICHIGAN

CITY           SKY/WX    TMP DP  RH WIND       PRES   REMARKS
ADRIAN         PTCLDY    80  58  46 S8        29.98F
6HR MIN TEMP:  80; 6HR MAX TEMP:  85;

ALMA           MOSUNNY   81  57  43 S6        29.94F
ANN ARBOR      CLOUDY    79  59  50 S8        29.98F
BAD AXE        CLOUDY    65  52  62 E5        30.00S
CARO           PTCLDY    78  60  53 E7        29.96S
DETROIT CITY   PTCLDY    79  57  46 S7        30.00S
6HR MIN TEMP:  79; 6HR MAX TEMP:  85;

DETROIT        MOCLDY    79  59  50 S9        29.99F
6HR MIN TEMP:  79; 6HR MAX TEMP:  86;

FLINT          PTCLDY    83  58  42 S7        29.97S
6HR MIN TEMP:  83; 6HR MAX TEMP:  89;

GROSSE ILE     CLOUDY    73  61  64 SE8       29.98F
HILLSDALE      CLEAR     80  51  37 SE6       29.98S
6HR MIN TEMP:  79; 6HR MAX TEMP:  83;

HOWELL         CLEAR     79  56  45 S8        29.97F

CITY           SKY/WX    TMP DP  RH WIND       PRES   REMARKS
JACKSON        CLEAR     80  57  45 S10       29.97S
6HR MIN TEMP:  80; 6HR MAX TEMP:  84;

LAMBERTVILLE   PTCLDY    80  58  46 S5        29.99S
6HR MIN TEMP:  80; 6HR MAX TEMP:  84;

LANSING        PTCLDY    80  58  46 S9        29.95S
6HR MIN TEMP:  80; 6HR MAX TEMP:  85;

LAPEER         FAIR      81  56  41 S9        29.98S
6HR MIN TEMP:  81; 6HR MAX TEMP:  89;

MASON          CLEAR     80  58  47 S6        29.96S
MONROE         PTCLDY    78  62  58 SE5       29.98F
6HR MIN TEMP:  78; 6HR MAX TEMP:  84;

PONTIAC        MOCLDY    80  58  46 S7        29.98F
6HR MIN TEMP:  80; 6HR MAX TEMP:  85;

PORT HOPE        N/A     59  54  83 E7        29.99F
6HR MIN TEMP:  56; 6HR MAX TEMP:  61;

PORT HURON     PTCLDY    77  59  53 S8G16     30.00S
TRI CITIES     MOCLDY    69  58  67 N10       29.96S
6HR MIN TEMP:  69; 6HR MAX TEMP:  89; 6HR PCP: TRACE;

MIDLAND        FAIR      69  58  65 E8        29.96R
6HR MIN TEMP:  69; 6HR MAX TEMP:  85;

TROY           PTCLDY    82  57  42 S8        30.01S
SAGINAW HB     CLEAR     73  59  60 N9        29.95S
$$
MIZ043>046-050>051-056>058-064>065-071>073-077>080-260100-
SOUTHWEST LOWER MICHIGAN

CITY           SKY/WX    TMP DP  RH WIND       PRES   REMARKS
BATTLE CREEK   SUNNY     79  58  48 S7        29.96R
6HR MIN TEMP:  79; 6HR MAX TEMP:  84;

BENTON HARBOR  CLOUDY    81  60  48 SE6       29.90S
6HR MIN TEMP:  79; 6HR MAX TEMP:  86;

BIG RAPIDS     PTSUNNY   70  66  88 NE5       29.94F
6HR MIN TEMP:  69; 6HR MAX TEMP:  84; 6HR PCP:  0.08;

COLDWATER      CLOUDY    80  58  46 S5        29.96R
6HR MIN TEMP:  79; 6HR MAX TEMP:  82;

FREMONT        FAIR      81  61  50 SW3       29.92S
HOLLAND        CLOUDY    80  63  55 W3        29.92S
6HR MIN TEMP:  80; 6HR MAX TEMP:  85;

GRAND RAPIDS   PTSUNNY   81  60  48 S8        29.93S
6HR MIN TEMP:  81; 6HR MAX TEMP:  88;

IONIA          FAIR      82  55  39 S9        29.93S
6HR MIN TEMP:  82; 6HR MAX TEMP:  86;

KALAMAZOO      MOSUNNY   81  59  47 S8        29.94R
6HR MIN TEMP:  79; 6HR MAX TEMP:  85;

LUDINGTON      PTSUNNY   73  62  68 CALM      29.93F
6HR MIN TEMP:  67; 6HR MAX TEMP:  77;

MARSHALL       CLEAR     80  58  46 S5        29.95R
6HR MIN TEMP:  80; 6HR MAX TEMP:  85;

MOUNT PLEASANT PTSUNNY   76  62  62 E14       29.94S
6HR MIN TEMP:  76; 6HR MAX TEMP:  87;

MUSKEGON       CLOUDY    82  60  47 S5        29.92S
6HR MIN TEMP:  78; 6HR MAX TEMP:  83;

SOUTH HAVEN    PTSUNNY   81  59  47 SE3       29.91R
$$
MIZ016>042-260100-
NORTHERN LOWER MICHIGAN

CITY           SKY/WX    TMP DP  RH WIND       PRES   REMARKS
ALPENA         CLOUDY    63  53  70 E7        30.03F
6HR MIN TEMP:  63; 6HR MAX TEMP:  77;

BEAVER ISLAND  PTSUNNY   66  55  67 E10       29.98S
6HR MIN TEMP:  61; 6HR MAX TEMP:  67;

BELLAIRE       CLOUDY    71  64  77 CALM      29.95F
6HR MIN TEMP:  71; 6HR MAX TEMP:  82;

CADILLAC       LGT RAIN  69  63  80 S10       29.99R
CHARLEVOIX     CLOUDY    72  58  61 E8        29.99F
FRANKFORT      CLOUDY    75  58  57 CALM      29.93F
GAYLORD        CLOUDY    72  57  59 E7        30.00S
6HR MIN TEMP:  72; 6HR MAX TEMP:  81; 6HR PCP: TRACE;

GRAYLING       CLOUDY    70  62  76 E3        30.00F
6HR MIN TEMP:  70; 6HR MAX TEMP:  87;

HARBOR SPRINGS PTSUNNY   69  57  64 NE12      29.98F
HOUGHTON LAKE  CLOUDY    65  62  90 E6        29.98S
6HR MIN TEMP:  63; 6HR MAX TEMP:  86; 6HR PCP:  2.45;

MANISTEE       CLOUDY    73  57  56 NW5       29.94F
OSCODA         PTCLDY    63  53  69 E6        30.02S
6HR MIN TEMP:  60; 6HR MAX TEMP:  71;

PELLSTON       CLOUDY    69  55  60 NE9       29.99F
6HR MIN TEMP:  62; 6HR MAX TEMP:  73;

ROGERS CITY    MOSUNNY   65  54  65 SE10      30.04S
TRAVERSE CITY  PTSUNNY   69  57  65 W5        29.93F
6HR MIN TEMP:  65; 6HR MAX TEMP:  77;

$$
MIZ007>008-015-260100-
EASTERN UPPER MICHIGAN

CITY           SKY/WX    TMP DP  RH WIND       PRES   REMARKS
KINROSS          N/A     72  54  53 E12       30.01S
6HR MIN TEMP:  66; 6HR MAX TEMP:  73;

MACKINAC ISLAN CLOUDY    64  54  69 SE13G20   30.01S
6HR MIN TEMP:  60; 6HR MAX TEMP:  68;

NEWBERRY       MOSUNNY   69  59  71 CALM      29.99R
6HR MIN TEMP:  65; 6HR MAX TEMP:  73;

S. S. MARIE    MOSUNNY   70  54  56 SE7       30.00S
6HR MIN TEMP:  70; 6HR MAX TEMP:  75;

MUNISING         N/A     48  44  86 CALM      29.98F
6HR MIN TEMP:  48; 6HR MAX TEMP:  52;

$$
MIZ004>006-011>014-085-260100-
CENTRAL UPPER MICHIGAN

CITY           SKY/WX    TMP DP  RH WIND       PRES   REMARKS
MANISTIQUE     CLOUDY    64  57  76 E7        29.98S
6HR MIN TEMP:  60; 6HR MAX TEMP:  68;

ESCANABA       MOSUNNY   64  55  72 E6        29.96S
6HR MIN TEMP:  63; 6HR MAX TEMP:  70;

MENOMINEE      CLOUDY    59  55  87 E5        29.96F
6HR MIN TEMP:  57; 6HR MAX TEMP:  62;

SAWYER-GWINN   SUNNY     54  48  82 NE3       30.00R
$$
MIZ001>003-009>011-084-260100-
WESTERN UPPER MICHIGAN

CITY           SKY/WX    TMP DP  RH WIND       PRES   REMARKS
IRON MOUNTAIN  LGT RAIN  67  57  70 SE7       29.94F
6HR MIN TEMP:  65; 6HR MAX TEMP:  74; 6HR PCP: TRACE;

HOUGHTON       CLOUDY    51  47  86 E15       29.96F
6HR MIN TEMP:  50; 6HR MAX TEMP:  55;

COPPER HARBOR    N/A     54  47  77 S9        29.98F
6HR MIN TEMP:  52; 6HR MAX TEMP:  60;

IRONWOOD       CLOUDY    50  48  93 W10       29.90R
6HR MIN TEMP:  50; 6HR MAX TEMP:  77; 6HR PCP:  0.03;

$$

ABBREVIATIONS USED IN REMARKS
   TC - TEMPERATURE IN CELSIUS
  WCI - WIND CHILL INDEX
   HX - HEAT INDEX
  VSB - VISIBILITY




USA.gov is the U.S. government's official web portal to all federal, state and local government web resources and services.